1506369600.4,50511,15.44,74384.5,-0.27,-28.79,-29.01,0,*6B
1506369601.64,50512,15.44,74384.5,-0.27,-28.97,-29.13,0,*6B
1506369602.91,50513,15.44,74382.5,-0.27,-28.75,-29.01,0,*65
1506369604.16,50514,15.44,74384.0,-0.25,-28.59,-28.91,0,*66
1506369605.39,50515,15.44,74382.3,-0.25,-28.69,-28.91,0,*64
1506369606.6,50516,15.44,74384.0,-0.25,-28.53,-28.69,0,*69
1506369607.85,50517,15.44,74384.0,-0.25,-28.59,-28.79,0,*63
1506369609.09,50518,15.44,74382.3,-0.23,-28.69,-28.79,0,*69
1506369610.33,50519,15.44,74384.3,-0.23,-28.69,-28.79,0,*68
1506369611.55,50520,15.44,74384.0,-0.25,-28.97,-29.13,0,*68
1506369612.78,50521,15.44,74384.8,-0.25,-28.79,-28.97,0,*64
1506369614.01,50522,15.44,74386.0,-0.25,-28.79,-28.97,0,*67
1506369615.23,50523,15.44,74380.3,-0.25,-29.07,-29.13,0,*63
1506369616.48,50524,15.44,74382.8,-0.25,-28.79,-28.91,0,*67
1506369617.73,50525,15.44,74384.8,-0.25,-28.75,-28.91,0,*6A
1506369618.99,50526,15.44,74382.5,-0.25,-28.59,-28.91,0,*67
1506369620.26,50527,15.44,74380.0,-0.23,-28.75,-28.91,0,*6E
1506369621.51,50528,15.44,74380.3,-0.23,-28.37,-28.59,0,*63
1506369622.77,50529,15.44,74386.3,-0.25,-28.59,-28.91,0,*68
1506369624.05,50530,15.44,74382.0,-0.23,-28.79,-28.91,0,*64
1506369625.29,50531,15.44,74382.8,-0.23,-28.75,-28.97,0,*6F
1506369626.51,50532,15.44,74380.5,-0.25,-29.23,-29.29,0,*6C
1506369627.77,50533,15.44,74378.5,-0.25,-28.79,-28.91,0,*61
1506369629.0,50534,15.44,74380.3,-0.25,-28.69,-28.91,0,*67
1506369630.24,50535,15.44,74380.0,-0.23,-28.75,-28.97,0,*6B
1506369631.46,50536,15.44,74382.3,-0.21,-28.91,-29.07,0,*68
1506369632.7,50537,15.44,74380.5,-0.23,-29.23,-29.29,0,*6F
1506369633.92,50538,15.44,74382.5,-0.25,-29.23,-29.29,0,*66
1506369635.15,50539,15.44,74384.5,-0.25,-29.07,-29.29,0,*61
1506369636.39,50540,15.44,74386.5,-0.23,-29.07,-29.29,0,*69
1506369637.61,50541,15.44,74382.5,-0.23,-29.07,-29.07,0,*64
1506369638.85,50542,15.44,74380.0,-0.25,-29.13,-29.29,0,*68
1506369640.08,50543,15.44,74380.0,-0.25,-29.23,-29.39,0,*6B
1506369641.28,50544,15.44,74382.0,-0.25,-29.07,-29.23,0,*61
1506369642.53,50545,15.44,74384.5,-0.25,-29.13,-29.39,0,*6E
1506369643.75,50546,15.44,74388.3,-0.25,-29.23,-29.29,0,*6F
1506369644.95,50547,15.44,74382.5,-0.25,-29.07,-29.23,0,*62
1506369646.19,50548,15.44,74382.3,-0.25,-29.13,-29.29,0,*62
1506369647.44,50549,15.44,74380.0,-0.25,-29.13,-29.39,0,*62
1506369648.66,50550,15.44,74386.5,-0.25,-29.07,-29.29,0,*6E
1506369649.89,50551,15.44,74384.5,-0.25,-29.23,-29.39,0,*68
1506369651.09,50552,15.44,74378.5,-0.25,-29.07,-29.07,0,*60
1506369652.31,50553,15.44,74384.5,-0.25,-29.07,-29.13,0,*64
1506369653.56,50554,15.44,74382.5,-0.25,-29.13,-29.39,0,*6E
1506369654.83,50555,15.44,74386.3,-0.27,-29.29,-29.51,0,*6A
1506369656.08,50556,15.44,74386.3,-0.27,-29.29,-29.61,0,*6A
1506369657.3,50557,15.44,74382.3,-0.27,-29.45,-29.79,0,*68
1506369658.54,50558,15.44,74382.0,-0.29,-29.35,-29.67,0,*61
1506369659.8,50559,15.44,74386.5,-0.27,-29.35,-29.61,0,*68
1506369661.05,50560,15.44,74388.3,-0.29,-29.29,-29.35,0,*60
1506369662.33,50561,15.44,74380.0,-0.27,-29.29,-29.51,0,*6D
1506369663.61,50562,15.38,74382.0,-0.27,-29.35,-29.51,0,*63
1506369664.84,50563,15.38,74380.0,-0.29,-29.29,-29.45,0,*64
1506369666.1,50564,15.44,74384.3,-0.29,-29.29,-29.51,0,*66
1506369667.35,50565,15.44,74382.8,-0.29,-29.17,-29.29,0,*65
1506369668.6,50566,15.44,74386.8,-0.29,-29.29,-29.35,0,*66
1506369669.81,50567,15.44,74386.8,-0.29,-29.45,-29.67,0,*6A
1506369671.06,50568,15.44,74386.5,-0.27,-29.29,-29.45,0,*61
1506369672.29,50569,15.44,74386.0,-0.29,-29.17,-29.45,0,*63
1506369673.54,50570,15.44,74386.8,-0.27,-29.17,-29.45,0,*65
1506369674.8,50571,15.44,74384.8,-0.29,-29.13,-29.35,0,*69
1506369676.05,50572,15.44,74382.0,-0.29,-29.29,-29.51,0,*61
1506369677.28,50573,15.44,74384.5,-0.27,-29.45,-29.61,0,*67
1506369678.54,50574,15.44,74386.0,-0.31,-29.35,-29.57,0,*65
1506369679.8,50575,15.44,74382.8,-0.31,-29.35,-29.57,0,*64
1506369681.05,50576,15.44,74384.0,-0.31,-29.07,-29.35,0,*62
1506369682.31,50577,15.44,74384.3,-0.29,-29.17,-29.51,0,*69
1506369683.54,50578,15.38,74384.3,-0.29,-29.29,-29.45,0,*6E
1506369684.78,50579,15.44,74384.5,-0.29,-29.35,-29.67,0,*62
1506369686.04,50580,15.44,74386.8,-0.29,-29.35,-29.51,0,*61
1506369687.31,50581,15.38,74380.5,-0.29,-29.35,-29.51,0,*60
1506369688.56,50582,15.44,74386.5,-0.29,-29.17,-29.35,0,*61
1506369689.84,50583,15.44,74384.3,-0.31,-29.01,-29.17,0,*6E
1506369691.09,50584,15.44,74382.5,-0.31,-29.23,-29.39,0,*65
1506369692.32,50585,15.44,74386.0,-0.33,-29.45,-29.73,0,*68
1506369693.6,50586,15.44,74386.0,-0.31,-29.51,-29.73,0,*6C
1506369694.88,50587,15.38,74382.8,-0.31,-29.39,-29.73,0,*63
1506369696.12,50588,15.44,74384.8,-0.33,-29.57,-29.73,0,*66
1506369697.32,50589,15.44,74384.8,-0.33,-29.45,-29.61,0,*67
1506369698.58,50590,15.44,74386.0,-0.31,-29.39,-29.57,0,*63
1506369699.85,50591,15.38,74384.8,-0.31,-29.39,-29.67,0,*61
1506369701.08,50592,15.44,74390.3,-0.33,-29.57,-29.73,0,*6D
1506369702.34,50593,15.44,74384.5,-0.31,-29.51,-29.67,0,*6D
1506369703.57,50594,15.44,74384.8,-0.33,-29.45,-29.73,0,*68
1506369704.78,50595,15.38,74382.0,-0.33,-29.45,-29.57,0,*6F
1506369706.04,50596,15.44,74386.3,-0.31,-29.39,-29.67,0,*66
1506369707.27,50597,15.44,74388.5,-0.33,-29.29,-29.57,0,*67
1506369708.51,50598,15.44,74386.3,-0.33,-29.39,-29.57,0,*69
1506369709.74,50599,15.38,74384.0,-0.33,-29.29,-29.57,0,*69
1506369710.97,50600,15.38,74386.3,-0.33,-29.39,-29.61,0,*6E
1506369712.23,50601,15.44,74386.8,-0.33,-29.39,-29.73,0,*6C
1506369713.44,50602,15.44,74388.3,-0.33,-29.57,-29.79,0,*6D
1506369714.65,50603,15.44,74388.5,-0.33,-29.57,-29.61,0,*65
1506369715.86,50604,15.44,74386.0,-0.33,-29.45,-29.57,0,*64
1506369717.09,50605,15.44,74386.0,-0.35,-29.45,-29.61,0,*66
1506369718.32,50606,15.38,74386.5,-0.33,-29.45,-29.73,0,*60
1506369719.52,50607,15.44,74388.5,-0.33,-29.57,-29.79,0,*68
1506369720.75,50608,15.38,74384.0,-0.33,-29.45,-29.73,0,*6E
1506369721.99,50609,15.38,74388.0,-0.33,-29.45,-29.73,0,*6F
1506369723.24,50610,15.38,74384.5,-0.35,-29.45,-29.73,0,*61
1506369724.47,50611,15.38,74386.3,-0.33,-29.45,-29.73,0,*66
1506369725.7,50612,15.38,74386.0,-0.33,-29.45,-29.73,0,*65
1506369726.93,50613,15.44,74388.8,-0.35,-29.57,-29.79,0,*6B
1506369728.17,50614,15.38,74386.5,-0.37,-29.61,-29.89,0,*64
1506369729.39,50615,15.38,74384.0,-0.35,-29.45,-29.79,0,*6E
1506369730.59,50616,15.38,74384.3,-0.37,-29.45,-29.79,0,*6F
1506369731.83,50617,15.38,74384.0,-0.37,-29.51,-29.83,0,*6E
1506369733.03,50618,15.44,74388.8,-0.37,-29.61,-29.79,0,*67
1506369734.23,50619,15.38,74386.8,-0.37,-29.61,-29.95,0,*64
1506369735.46,50620,15.38,74386.5,-0.37,-29.51,-29.79,0,*6F
1506369736.69,50621,15.38,74390.3,-0.39,-29.45,-29.61,0,*6C
1506369737.9,50622,15.38,74386.5,-0.37,-29.45,-29.67,0,*67
1506369739.13,50623,15.38,74386.8,-0.37,-29.51,-29.83,0,*69
1506369740.36,50624,15.38,74386.0,-0.37,-29.51,-29.79,0,*6B
1506369741.57,50625,15.44,74388.8,-0.37,-29.61,-29.83,0,*6C
1506369742.83,50626,15.38,74390.0,-0.39,-29.51,-29.83,0,*62
1506369744.04,50627,15.38,74386.8,-0.37,-29.45,-29.67,0,*62
1506369745.25,50628,15.38,74386.5,-0.37,-29.45,-29.67,0,*6D
1506369746.45,50629,15.38,74388.0,-0.37,-29.61,-29.95,0,*67
1506369747.68,50630,15.38,74388.3,-0.37,-29.67,-30.01,0,*6C
1506369748.94,50631,15.38,74384.0,-0.43,-29.57,-29.89,0,*65
1506369750.17,50632,15.38,74386.5,-0.39,-29.45,-29.67,0,*68
1506369751.4,50633,15.38,74384.3,-0.43,-29.67,-29.83,0,*6E
1506369752.66,50634,15.38,74390.3,-0.43,-29.51,-29.61,0,*60
1506369753.92,50635,15.38,74384.0,-0.43,-29.51,-29.67,0,*67
1506369755.15,50636,15.38,74390.8,-0.39,-29.45,-29.67,0,*6C
1506369756.37,50637,15.38,74390.3,-0.43,-29.07,-29.23,0,*66
1506369757.62,50638,15.38,74390.5,-0.39,-29.29,-29.61,0,*6E
1506369758.91,50639,15.38,74388.8,-0.43,-29.51,-29.89,0,*6B
1506369760.14,50640,15.38,74388.5,-0.43,-29.57,-29.83,0,*69
1506369761.37,50641,15.38,74388.8,-0.43,-29.57,-29.83,0,*68
1506369762.63,50642,15.38,74390.5,-0.43,-29.57,-29.73,0,*64
1506369763.89,50643,15.38,74384.3,-0.39,-29.35,-29.57,0,*6A
1506369765.17,50644,15.38,74388.3,-0.43,-29.51,-29.73,0,*64
1506369766.43,50645,15.38,74384.5,-0.39,-29.51,-29.83,0,*67
1506369767.68,50646,15.38,74390.8,-0.43,-29.57,-29.73,0,*60
1506369768.96,50647,15.38,74390.3,-0.43,-29.39,-29.73,0,*69
1506369770.19,50648,15.38,74390.0,-0.43,-29.57,-29.83,0,*61
1506369771.39,50649,15.38,74388.3,-0.45,-29.61,-29.79,0,*66
1506369772.62,50650,15.38,74388.8,-0.45,-29.61,-29.73,0,*64
1506369773.82,50651,15.38,74388.5,-0.45,-29.61,-29.79,0,*6F
1506369775.05,50652,15.38,74384.5,-0.45,-29.61,-29.73,0,*66
1506369776.27,50653,15.38,74388.8,-0.43,-29.57,-29.79,0,*6E
1506369777.55,50654,15.38,74386.8,-0.43,-29.51,-29.73,0,*65
1506369778.78,50655,15.38,74388.0,-0.45,-29.61,-29.89,0,*64
1506369780.01,50656,15.38,74390.8,-0.45,-29.57,-29.73,0,*67
1506369781.24,50657,15.38,74392.8,-0.45,-29.45,-29.73,0,*65
1506369782.48,50658,15.38,74386.5,-0.45,-29.57,-29.89,0,*6C
1506369783.7,50659,15.38,74386.5,-0.45,-29.73,-29.95,0,*66
1506369784.9,50660,15.38,74384.8,-0.45,-29.61,-29.95,0,*6F
1506369786.14,50661,15.38,74388.3,-0.45,-29.61,-29.89,0,*63
1506369787.34,50662,15.38,74392.3,-0.45,-29.57,-29.79,0,*6A
1506369788.59,50663,15.38,74390.8,-0.47,-29.73,-29.95,0,*6D
1506369789.81,50664,15.38,74390.5,-0.47,-29.61,-29.79,0,*6B
1506369791.06,50665,15.38,74388.3,-0.47,-29.57,-29.73,0,*65
1506369792.32,50666,15.38,74390.5,-0.47,-29.57,-29.89,0,*63
1506369793.54,50667,15.38,74392.0,-0.45,-29.79,-30.05,0,*60
1506369794.77,50668,15.38,74388.5,-0.47,-29.61,-29.95,0,*65
1506369796.01,50669,15.38,74390.0,-0.49,-29.51,-29.67,0,*64
1506369797.24,50670,15.38,74394.3,-0.47,-29.45,-29.57,0,*64
1506369798.46,50671,15.38,74388.8,-0.47,-29.57,-29.79,0,*6A
1506369799.69,50672,15.38,74390.3,-0.47,-29.57,-29.79,0,*69
1506369800.94,50673,15.38,74388.5,-0.47,-29.29,-29.61,0,*68
1506369802.19,50674,15.38,74388.3,-0.47,-29.57,-29.73,0,*65
1506369803.42,50675,15.38,74388.5,-0.45,-29.57,-29.73,0,*66
1506369804.65,50676,15.38,74390.8,-0.49,-29.61,-30.01,0,*61
1506369805.86,50677,15.38,74390.0,-0.49,-29.67,-29.95,0,*63
1506369807.06,50678,15.38,74390.3,-0.49,-29.61,-29.95,0,*6A
1506369808.28,50679,15.38,74386.8,-0.49,-29.67,-29.83,0,*6A
1506369809.49,50680,15.38,74390.3,-0.49,-29.67,-29.83,0,*6C
1506369810.72,50681,15.38,74388.0,-0.49,-29.51,-29.79,0,*6D
1506369811.93,50682,15.38,74390.8,-0.49,-29.61,-29.83,0,*68
1506369813.16,50683,15.38,74390.5,-0.51,-29.61,-29.79,0,*65
1506369814.42,50684,15.38,74388.8,-0.51,-29.51,-29.67,0,*6E
1506369815.65,50685,15.38,74388.8,-0.49,-29.51,-29.61,0,*60
1506369816.86,50686,15.38,74388.0,-0.49,-29.45,-29.61,0,*66
1506369818.07,50687,15.38,74386.3,-0.49,-29.45,-29.61,0,*67
1506369819.28,50688,15.38,74386.5,-0.49,-29.45,-29.67,0,*6E
1506369820.5,50689,15.38,74388.5,-0.51,-29.61,-29.79,0,*6F
1506369821.71,50690,15.38,74384.0,-0.49,-29.61,-29.83,0,*6B
1506369822.95,50691,15.38,74390.0,-0.51,-29.45,-29.61,0,*69
1506369824.2,50692,15.38,74390.3,-0.51,-29.51,-29.79,0,*66
1506369825.43,50693,15.38,74386.5,-0.51,-29.61,-29.83,0,*61
1506369826.66,50694,15.38,74390.3,-0.51,-29.61,-29.79,0,*63
1506369827.89,50695,15.38,74386.3,-0.51,-29.61,-29.83,0,*67
1506369829.13,50696,15.38,74388.0,-0.51,-29.45,-29.67,0,*68
1506369830.36,50697,15.38,74386.5,-0.51,-29.45,-29.67,0,*69
1506369831.62,50698,15.38,74384.0,-0.51,-29.51,-29.83,0,*69
1506369832.83,50699,15.38,74386.0,-0.53,-29.57,-29.83,0,*6C
1506369834.06,50700,15.38,74390.8,-0.53,-29.57,-29.73,0,*62
1506369835.26,50701,15.38,74388.3,-0.53,-29.67,-29.83,0,*6F
1506369836.49,50702,15.38,74390.0,-0.53,-29.57,-29.73,0,*60
1506369837.73,50703,15.38,74388.8,-0.49,-29.51,-29.67,0,*69
1506369838.97,50704,15.38,74386.0,-0.53,-29.51,-29.67,0,*65
1506369840.22,50705,15.38,74386.5,-0.53,-29.01,-29.35,0,*66
1506369841.48,50706,15.38,74386.8,-0.53,-29.35,-29.39,0,*6E
1506369842.73,50707,15.38,74386.0,-0.53,-29.13,-29.35,0,*67
1506369843.95,50708,15.38,74386.3,-0.53,-29.01,-29.23,0,*6C
1506369845.18,50709,15.38,74384.3,-0.53,-29.35,-29.57,0,*69
1506369846.43,50710,15.38,74384.3,-0.53,-29.17,-29.39,0,*69
1506369847.68,50711,15.38,74386.8,-0.53,-29.17,-29.35,0,*64
1506369848.93,50712,15.38,74390.8,-0.51,-29.07,-29.29,0,*69
1506369850.21,50713,15.38,74386.3,-0.51,-29.35,-29.35,0,*64
1506369851.49,50714,15.38,74390.5,-0.51,-29.29,-29.51,0,*6C
1506369852.73,50715,15.38,74388.0,-0.49,-29.35,-29.45,0,*6C
1506369854.01,50716,15.38,74386.3,-0.51,-29.29,-29.51,0,*6E
1506369855.28,50717,15.38,74384.5,-0.51,-29.13,-29.29,0,*69
1506369856.56,50718,15.38,74384.5,-0.51,-29.29,-29.35,0,*62
1506369857.8,50719,15.38,74390.5,-0.51,-29.07,-29.29,0,*62
1506369859.09,50720,15.38,74388.3,-0.51,-29.17,-29.35,0,*64
1506369860.31,50721,15.38,74386.3,-0.53,-29.29,-29.57,0,*6E
1506369861.56,50722,15.38,74386.0,-0.51,-28.97,-29.29,0,*62
1506369862.81,50723,15.38,74384.5,-0.49,-29.13,-29.35,0,*6A
1506369864.08,50724,15.38,74384.0,-0.47,-28.91,-29.13,0,*6C
1506369865.33,50725,15.38,74382.8,-0.51,-28.97,-29.17,0,*68
1506369866.61,50726,15.38,74386.8,-0.51,-29.13,-29.35,0,*66
1506369867.89,50727,15.38,74386.0,-0.51,-29.13,-29.35,0,*67
1506369869.15,50728,15.38,74386.3,-0.49,-29.35,-29.51,0,*67
1506369870.41,50729,15.38,74386.3,-0.51,-29.45,-29.51,0,*68
1506369871.67,50730,15.38,74390.0,-0.51,-29.35,-29.61,0,*64
1506369872.93,50731,15.38,74386.3,-0.51,-29.29,-29.45,0,*6E
1506369874.19,50732,15.38,74384.3,-0.51,-29.35,-29.45,0,*60
1506369875.4,50733,15.38,74384.8,-0.53,-29.13,-29.23,0,*67
1506369876.65,50734,15.38,74384.8,-0.51,-29.07,-29.17,0,*60
1506369877.9,50735,15.38,74388.0,-0.51,-29.07,-29.13,0,*65
1506369879.15,50736,15.38,74384.8,-0.51,-28.91,-29.07,0,*6D
1506369880.38,50737,15.38,74384.3,-0.49,-28.97,-29.17,0,*62
1506369881.6,50738,15.38,74390.3,-0.49,-28.79,-28.97,0,*64
1506369882.85,50739,15.38,74386.3,-0.51,-28.75,-29.07,0,*68
1506369884.13,50740,15.38,74384.3,-0.51,-29.17,-29.35,0,*62
1506369885.38,50741,15.38,74386.3,-0.51,-29.29,-29.45,0,*69
1506369886.63,50742,15.38,74388.0,-0.51,-28.97,-29.17,0,*69
1506369887.86,50743,15.38,74384.3,-0.49,-29.17,-29.45,0,*6F
1506369889.08,50744,15.38,74386.0,-0.47,-29.07,-29.23,0,*67
1506369890.31,50745,15.38,74386.8,-0.49,-29.29,-29.45,0,*64
1506369891.53,50746,15.38,74386.3,-0.49,-29.07,-29.17,0,*6C
1506369892.76,50747,15.38,74390.5,-0.49,-29.07,-29.17,0,*6D
1506369894.05,50748,15.38,74386.8,-0.51,-29.35,-29.51,0,*68
1506369895.3,50749,15.38,74388.3,-0.49,-28.91,-29.13,0,*69
1506369896.54,50750,15.38,74390.5,-0.47,-29.13,-29.23,0,*67
1506369897.81,50751,15.38,74384.3,-0.49,-29.35,-29.51,0,*69
1506369899.04,50752,15.38,74386.5,-0.49,-29.29,-29.45,0,*62
1506369900.26,50753,15.38,74390.0,-0.49,-29.07,-29.17,0,*68
1506369901.5,50754,15.38,74392.5,-0.49,-28.97,-29.35,0,*67
1506369902.74,50755,15.38,74392.3,-0.51,-28.97,-29.17,0,*6F
1506369903.99,50756,15.38,74384.3,-0.49,-29.13,-29.29,0,*65
1506369905.24,50757,15.38,74388.5,-0.49,-28.91,-29.29,0,*6F
1506369906.5,50758,15.38,74388.3,-0.49,-28.91,-29.17,0,*6D
1506369907.72,50759,15.38,74388.3,-0.49,-28.97,-29.17,0,*6A
1506369908.97,50760,15.38,74388.8,-0.49,-28.91,-29.13,0,*62
1506369910.21,50761,15.38,74390.8,-0.49,-29.07,-29.35,0,*69
1506369911.43,50762,15.38,74390.0,-0.49,-28.91,-29.07,0,*65
1506369912.68,50763,15.38,74388.0,-0.47,-28.69,-29.01,0,*6B
1506369913.9,50764,15.38,74388.8,-0.47,-28.85,-29.07,0,*68
1506369915.17,50765,15.38,74390.0,-0.47,-28.91,-29.13,0,*69
1506369916.42,50766,15.38,74390.5,-0.47,-28.91,-29.07,0,*6F
1506369917.69,50767,15.38,74384.8,-0.47,-29.01,-29.13,0,*63
1506369918.95,50768,15.38,74388.3,-0.49,-28.63,-28.91,0,*6C
1506369920.2,50769,15.38,74388.8,-0.47,-28.59,-28.85,0,*6F
1506369921.47,50770,15.38,74384.3,-0.47,-28.75,-28.75,0,*66
1506369922.67,50771,15.38,74390.8,-0.45,-28.85,-29.07,0,*6E
1506369923.93,50772,15.38,74390.8,-0.47,-29.13,-29.29,0,*6D
1506369925.18,50773,15.38,74388.3,-0.45,-29.01,-29.13,0,*64
1506369926.4,50774,15.38,74390.5,-0.47,-28.85,-29.07,0,*69
1506369927.65,50775,15.38,74392.0,-0.45,-28.59,-28.91,0,*65
1506369928.85,50776,15.38,74392.3,-0.45,-28.85,-29.07,0,*69
1506369930.07,50777,15.38,74388.0,-0.47,-29.07,-29.23,0,*67
1506369931.29,50778,15.38,74392.8,-0.45,-29.13,-29.23,0,*6F
1506369932.54,50779,15.38,74390.3,-0.45,-28.91,-29.13,0,*66
1506369933.79,50780,15.38,74388.0,-0.45,-28.75,-29.01,0,*69
1506369935.03,50781,15.38,74392.0,-0.45,-28.75,-29.01,0,*68
1506369936.31,50782,15.38,74390.5,-0.47,-28.75,-28.91,0,*61
1506369937.52,50783,15.38,74390.5,-0.45,-28.53,-28.85,0,*63
1506369938.76,50784,15.38,74390.3,-0.45,-28.59,-28.75,0,*61
1506369939.99,50785,15.38,74390.3,-0.45,-29.01,-29.07,0,*68
1506369941.23,50786,15.38,74390.3,-0.45,-29.01,-29.13,0,*6E
1506369942.43,50787,15.38,74388.5,-0.45,-29.07,-29.23,0,*6A
1506369943.67,50788,15.38,74390.8,-0.43,-28.97,-29.17,0,*6C
1506369944.92,50789,15.38,74386.0,-0.45,-28.91,-29.13,0,*69
1506369946.12,50790,15.38,74388.0,-0.45,-28.85,-29.07,0,*61
1506369947.34,50791,15.38,74390.0,-0.45,-28.75,-29.07,0,*6F
1506369948.58,50792,15.38,74390.0,-0.45,-29.01,-29.13,0,*6B
1506369949.78,50793,15.38,74388.8,-0.45,-29.07,-29.23,0,*6F
1506369951.0,50794,15.38,74390.0,-0.45,-28.85,-29.13,0,*60
1506369952.2,50795,15.38,74390.8,-0.45,-29.07,-29.23,0,*69
1506369953.42,50796,15.38,74388.8,-0.45,-29.29,-29.45,0,*66
1506369954.63,50797,15.38,74394.5,-0.45,-29.23,-29.45,0,*6D
1506369955.85,50798,15.38,74394.0,-0.45,-29.01,-29.07,0,*64
1506369957.1,50799,15.38,74394.5,-0.45,-28.91,-29.13,0,*68
1506369958.32,50800,15.38,74394.5,-0.45,-28.91,-29.07,0,*62
1506369959.52,50801,15.38,74394.0,-0.45,-29.07,-29.23,0,*6B
1506369960.71,50802,15.38,74390.3,-0.45,-29.07,-29.23,0,*68
1506369961.96,50803,15.38,74390.5,-0.45,-29.01,-29.13,0,*6C
1506369963.19,50804,15.38,74392.0,-0.45,-28.85,-29.01,0,*65
1506369964.42,50805,15.38,74392.8,-0.45,-28.85,-29.01,0,*64
1506369965.64,50806,15.38,74394.3,-0.45,-29.07,-29.29,0,*66
1506369966.88,50807,15.38,74392.0,-0.45,-29.13,-29.29,0,*62
1506369968.12,50808,15.38,74394.8,-0.45,-29.01,-29.13,0,*67
1506369969.35,50809,15.38,74392.8,-0.45,-29.01,-29.23,0,*65
1506369970.57,50810,15.38,74388.0,-0.45,-29.07,-29.29,0,*61
1506369971.84,50811,15.38,74390.8,-0.43,-28.63,-28.79,0,*61
1506369973.06,50812,15.38,74390.8,-0.43,-28.37,-28.53,0,*6B
1506369974.32,50813,15.38,74392.8,-0.43,-28.53,-28.63,0,*6B
1506369975.6,50814,15.38,74392.0,-0.39,-28.59,-28.91,0,*66
1506369976.88,50815,15.38,74392.8,-0.39,-28.91,-29.01,0,*6B
1506369978.15,50816,15.38,74392.5,-0.39,-28.91,-29.13,0,*6B
1506369979.4,50817,15.38,74392.8,-0.43,-28.97,-29.17,0,*65
1506369980.62,50818,15.38,74396.3,-0.43,-29.07,-29.23,0,*65
1506369981.89,50819,15.38,74390.8,-0.43,-29.01,-29.17,0,*65
1506369983.15,50820,15.38,74390.0,-0.43,-29.23,-29.35,0,*6F
1506369984.4,50821,15.38,74392.0,-0.43,-29.23,-29.35,0,*6E
1506369985.65,50822,15.38,74394.0,-0.43,-29.07,-29.17,0,*6B
1506369986.92,50823,15.38,74392.8,-0.43,-29.01,-29.17,0,*6C
1506369988.2,50824,15.38,74392.3,-0.35,-28.91,-29.17,0,*62
1506369989.44,50825,15.38,74390.3,-0.43,-29.07,-29.17,0,*6C
1506369990.72,50826,15.38,74390.3,-0.43,-29.01,-29.17,0,*69
1506369991.99,50827,15.38,74394.3,-0.43,-29.17,-29.35,0,*6F
1506369993.25,50828,15.38,74390.0,-0.43,-29.23,-29.35,0,*67
1506369994.49,50829,15.38,74384.5,-0.39,-28.97,-29.13,0,*61
1506369995.72,50830,15.38,74388.5,-0.43,-28.53,-28.69,0,*60
1506369996.97,50831,15.38,74392.0,-0.43,-28.63,-28.69,0,*62
1506369998.19,50832,15.38,74390.5,-0.43,-28.97,-29.07,0,*63
1506369999.46,50833,15.38,74388.5,-0.39,-28.59,-28.79,0,*65
1506370000.73,50834,15.38,74390.8,-0.39,-28.79,-29.01,0,*6E
1506370002.01,50835,15.38,74388.8,-0.39,-29.17,-29.35,0,*61
1506370003.26,50836,15.38,74388.0,-0.39,-28.97,-29.13,0,*6F
1506370004.5,50837,15.38,74392.0,-0.39,-28.75,-28.97,0,*6F
1506370005.72,50838,15.38,74392.3,-0.43,-29.23,-29.23,0,*61
1506370007.0,50839,15.38,74390.8,-0.43,-29.17,-29.35,0,*60
1506370008.25,50840,15.38,74390.8,-0.39,-28.79,-28.97,0,*63
1506370009.53,50841,15.38,74392.5,-0.39,-28.91,-29.01,0,*6A
1506370010.75,50842,15.38,74390.3,-0.35,-28.97,-29.23,0,*63
1506370011.97,50843,15.38,74392.8,-0.43,-28.85,-29.07,0,*66
1506370013.24,50844,15.38,74394.0,-0.39,-28.59,-28.75,0,*69
1506370014.52,50845,15.38,74392.8,-0.39,-28.63,-28.91,0,*6B
1506370015.8,50846,15.38,74390.8,-0.39,-28.63,-28.75,0,*62
1506370017.07,50847,15.38,74390.5,-0.39,-28.75,-28.91,0,*6E
1506370018.32,50848,15.38,74392.5,-0.37,-28.59,-28.79,0,*67
1506370019.56,50849,15.38,74394.3,-0.35,-28.75,-28.97,0,*6A
1506370020.79,50850,15.38,74394.8,-0.37,-28.91,-28.97,0,*6A
1506370022.04,50851,15.38,74394.3,-0.37,-28.79,-29.01,0,*63
1506370023.26,50852,15.38,74390.5,-0.37,-28.75,-28.97,0,*62
1506370024.5,50853,15.38,74390.5,-0.37,-29.13,-29.29,0,*66
1506370025.73,50854,15.38,74390.8,-0.35,-29.07,-29.23,0,*6C
1506370026.97,50855,15.38,74388.3,-0.37,-29.01,-29.29,0,*63
1506370028.21,50856,15.38,74388.8,-0.37,-29.13,-29.29,0,*63
1506370029.43,50857,15.38,74392.8,-0.37,-28.97,-29.13,0,*66
1506370030.68,50858,15.38,74394.8,-0.37,-28.91,-29.13,0,*6F
1506370031.9,50859,15.38,74396.0,-0.37,-28.97,-29.01,0,*6B
1506370033.16,50860,15.38,74392.5,-0.37,-28.79,-29.01,0,*61
1506370034.38,50861,15.38,74388.0,-0.37,-28.75,-28.97,0,*62
1506370035.63,50862,15.38,74388.3,-0.37,-28.79,-29.01,0,*63
1506370036.84,50863,15.38,74388.3,-0.37,-28.97,-29.13,0,*61
1506370038.09,50864,15.38,74394.5,-0.37,-28.75,-29.01,0,*69
1506370039.37,50865,15.38,74390.5,-0.35,-28.75,-28.91,0,*62
1506370040.62,50866,15.38,74390.0,-0.37,-29.01,-29.17,0,*6E
1506370041.84,50867,15.31,74390.0,-0.35,-29.07,-29.23,0,*6C
1506370043.06,50868,15.38,74392.5,-0.35,-28.97,-29.23,0,*6B
1506370044.28,50869,15.38,74394.5,-0.37,-28.97,-29.13,0,*6B
1506370045.53,50870,15.38,74392.0,-0.37,-28.91,-29.01,0,*66
1506370046.78,50871,15.38,74392.8,-0.37,-28.91,-29.13,0,*64
1506370048.0,50872,15.38,74388.8,-0.37,-28.75,-28.97,0,*60
1506370049.28,50873,15.38,74392.3,-0.35,-28.75,-28.91,0,*65
1506370050.52,50874,15.38,74394.0,-0.37,-29.13,-29.17,0,*6E
1506370051.75,50875,15.38,74390.3,-0.35,-29.23,-29.45,0,*69
1506370053.03,50876,15.38,74388.0,-0.35,-29.13,-29.39,0,*62
1506370054.27,50877,15.38,74390.8,-0.35,-29.07,-29.13,0,*6E
1506370055.54,50878,15.38,74388.8,-0.35,-29.13,-29.29,0,*6D
1506370056.79,50879,15.38,74390.3,-0.37,-29.29,-29.35,0,*6A
1506370058.02,50880,15.38,74390.0,-0.35,-29.07,-29.07,0,*63
1506370059.26,50881,15.38,74390.0,-0.37,-29.13,-29.13,0,*60
1506370060.52,50882,15.38,74390.8,-0.35,-29.13,-29.29,0,*68
1506370061.77,50883,15.38,74394.5,-0.35,-29.23,-29.39,0,*6B
1506370062.98,50884,15.31,74388.0,-0.37,-29.23,-29.57,0,*66
1506370064.22,50885,15.38,74386.3,-0.37,-29.17,-29.29,0,*69
1506370065.46,50886,15.38,74390.5,-0.37,-29.13,-29.29,0,*6E
1506370066.71,50887,15.38,74390.5,-0.37,-29.13,-29.13,0,*66
1506370067.93,50888,15.38,74388.8,-0.37,-29.29,-29.45,0,*63
1506370069.19,50889,15.38,74390.8,-0.37,-29.35,-29.51,0,*6A
1506370070.42,50890,15.38,74388.0,-0.37,-29.17,-29.45,0,*67
1506370071.64,50891,15.38,74388.5,-0.37,-28.97,-29.13,0,*6C
1506370072.91,50892,15.38,74388.5,-0.35,-28.91,-29.13,0,*6B
1506370074.13,50893,15.38,74388.8,-0.35,-28.97,-29.23,0,*6F
1506370075.38,50894,15.38,74390.3,-0.37,-29.13,-29.17,0,*60
1506370076.63,50895,15.38,74384.0,-0.37,-29.01,-29.17,0,*62
1506370077.88,50896,15.38,74388.5,-0.37,-29.13,-29.35,0,*62
1506370079.1,50897,15.38,74388.3,-0.35,-29.07,-29.23,0,*63
1506370080.32,50898,15.38,74390.8,-0.35,-28.97,-29.23,0,*64
1506370081.54,50899,15.38,74388.3,-0.37,-28.97,-29.13,0,*64
1506370082.79,50900,15.38,74390.8,-0.37,-29.13,-29.17,0,*6C
1506370084.04,50901,15.31,74390.8,-0.37,-29.17,-29.35,0,*69
1506370085.27,50902,15.38,74386.5,-0.35,-29.45,-29.45,0,*68
1506370086.5,50903,15.38,74394.5,-0.37,-29.29,-29.45,0,*61
1506370087.74,50904,15.38,74390.5,-0.35,-29.23,-29.29,0,*64
1506370088.98,50905,15.38,74394.0,-0.37,-29.35,-29.45,0,*6A
1506370090.2,50906,15.38,74390.3,-0.37,-29.29,-29.45,0,*64
1506370091.46,50907,15.38,74388.5,-0.37,-29.29,-29.51,0,*60
1506370092.72,50908,15.31,74384.3,-0.37,-29.35,-29.51,0,*62
1506370093.95,50909,15.38,74390.0,-0.37,-29.17,-29.45,0,*66
1506370095.19,50910,15.38,74386.5,-0.35,-29.07,-29.29,0,*67